FW7873 Weather Reports


time (UTC)temp
C
wind
direction
speed
KPH
gust
KPH
rain 1hr
cm
rain 24hr
cm
rain mn
cm
humidity
%
barometer
mb
20260506194609 11 360 4.8 14.5 0.00 0.00 0.00 48 1013.2
20260506193104 11 360 6.4 16.1 0.00 0.00 0.00 50 1013.3
20260506191619 10 21 6.4 19.3 0.00 0.00 0.00 50 1013.5
20260506190058 10 360 4.8 12.9 0.00 0.00 0.00 51 1013.5
20260506184627 10 323 4.8 16.1 0.00 0.00 0.00 53 1013.3
20260506183114 10 352 8.0 17.7 0.00 0.00 0.00 52 1013.2
20260506181600 10 360 3.2 16.1 0.00 0.00 0.00 50 1013.2
20260506174557 10 333 3.2 9.7 0.00 0.00 0.00 53 1013.4
20260506173100 10 360 3.2 16.1 0.00 0.00 0.00 52 1013.8
20260506171607 10 360 4.8 19.3 0.00 0.00 0.00 54 1013.8
20260506170100 10 326 6.4 12.9 0.00 0.00 0.00 55 1013.5
20260506164555 9 343 4.8 16.1 0.00 0.00 0.00 57 1013.6
20260506163107 9 360 9.7 19.3 0.00 0.00 0.00 57 1013.5
20260506161557 9 17 9.7 22.5 0.00 0.00 0.00 56 1013.6
20260506160109 9 360 3.2 17.7 0.00 0.00 0.00 59 1013.6
20260506154558 9 360 3.2 16.1 0.00 0.03 0.00 57 1013.4
20260506153057 10 324 4.8 17.7 0.00 0.03 0.00 58 1013.2
20260506151557 9 279 6.4 17.7 0.00 0.03 0.00 61 1013.2
20260506150057 9 339 3.2 14.5 0.00 0.03 0.00 59 1013.1
20260506144604 8 355 4.8 16.1 0.00 0.03 0.00 66 1013.0
20260506143109 8 269 4.8 12.9 0.00 0.03 0.00 64 1012.8
20260506141602 8 315 3.2 17.7 0.00 0.03 0.00 67 1012.7
20260506140111 7 44 6.4 17.7 0.00 0.03 0.00 70 1012.5
20260506134604 8 360 4.8 12.9 0.00 0.03 0.00 71 1012.4
20260506133106 8 360 3.2 12.9 0.00 0.03 0.00 73 1012.2
20260506131618 7 355 3.2 14.5 0.00 0.03 0.00 71 1012.1
20260506124600 7 360 4.8 14.5 0.00 0.03 0.00 69 1011.8
20260506123058 6 360 3.2 12.9 0.00 0.03 0.00 70 1011.5
20260506121601 6 360 4.8 14.5 0.00 0.03 0.00 70 1011.4
20260506120105 6 0 3.2 12.9 0.00 0.03 0.00 70 1011.3
20260506114610 6 360 3.2 9.7 0.00 0.03 0.00 69 1011.2
20260506113057 5 312 3.2 8.0 0.00 0.03 0.00 70 1011.0
20260506111557 5 0 1.6 8.0 0.00 0.03 0.00 68 1010.8
20260506110058 6 333 1.6 4.8 0.00 0.03 0.00 67 1010.7
20260506104601 6 337 1.6 6.4 0.00 0.03 0.00 66 1010.3
20260506103100 6 346 3.2 6.4 0.00 0.03 0.00 64 1010.3
20260506101557 6 335 3.2 8.0 0.00 0.03 0.00 63 1010.3
20260506100114 7 327 4.8 8.0 0.00 0.03 0.00 62 1010.0
20260506094600 7 325 3.2 8.0 0.00 0.03 0.00 61 1009.7
20260506093100 7 355 3.2 14.5 0.00 0.03 0.00 61 1009.4
20260506091559 7 335 3.2 8.0 0.00 0.03 0.00 62 1009.4
20260506090100 7 355 3.2 8.0 0.00 0.03 0.00 62 1009.6
20260506084605 7 332 4.8 12.9 0.00 0.03 0.00 61 1009.2
20260506083058 7 265 3.2 9.7 0.00 0.03 0.00 61 1009.3
20260506081555 7 322 4.8 12.9 0.00 0.03 0.00 62 1009.2
20260506073057 7 335 1.6 12.9 0.00 0.03 0.00 60 1009.3
20260506071559 8 340 1.6 9.7 0.00 0.03 0.00 61 1009.2
20260506061556 8 306 3.2 9.7 0.00 0.03 0.00 61 1009.3
20260506050104 8 294 1.6 6.4 0.00 0.03 0.00 62 1009.4
20260506044557 8 315 1.6 6.4 0.00 0.15 0.00 62 1009.4
20260506043056 8 317 1.6 4.8 0.00 0.15 0.00 62 1009.2
20260506041602 8 19 0.0 8.0 0.00 0.15 0.00 62 1009.2
20260506040110 8 0 0.0 4.8 0.00 0.15 0.00 62 1009.3
20260506034601 8 303 0.0 4.8 0.00 0.15 0.15 62 1009.1
20260506033056 8 5 0.0 6.4 0.00 0.15 0.15 61 1009.2
20260506031602 8 309 1.6 4.8 0.00 0.15 0.15 60 1009.3
20260506030121 8 302 0.0 6.4 0.00 0.15 0.15 60 1009.2
20260506024601 8 0 0.0 6.4 0.00 0.15 0.15 59 1009.2
20260506023057 9 292 0.0 9.7 0.00 0.15 0.15 59 1009.2
20260506021601 9 0 0.0 3.2 0.00 0.15 0.15 57 1009.2
20260506020055 9 0 0.0 8.0 0.00 0.15 0.15 57 1009.1
20260506014612 9 270 1.6 6.4 0.00 0.15 0.15 57 1009.0
20260506013100 9 294 3.2 12.9 0.00 0.15 0.15 56 1008.9
20260506011556 10 303 1.6 11.3 0.00 0.15 0.15 55 1008.7
20260506010105 10 271 3.2 9.7 0.00 0.15 0.15 53 1008.7
20260506004556 10 267 1.6 9.7 0.00 0.15 0.15 52 1008.6
20260506003058 10 279 4.8 12.9 0.00 0.15 0.15 51 1008.7
20260506001601 10 229 4.8 14.5 0.00 0.15 0.15 50 1008.8
20260506000059 10 309 6.4 17.7 0.00 0.15 0.15 51 1008.6
20260505234557 11 292 4.8 14.5 0.00 0.15 0.15 50 1008.5
20260505233129 11 314 4.8 12.9 0.00 0.15 0.15 49 1008.3
20260505231600 11 330 4.8 14.5 0.00 0.15 0.15 49 1008.2
20260505230058 11 310 8.0 16.1 0.00 0.15 0.15 53 1008.2
20260505224558 11 275 3.2 12.9 0.00 0.15 0.15 55 1008.2
20260505223056 11 290 1.6 11.3 0.00 0.15 0.15 55 1008.2
20260505221603 11 263 6.4 16.1 0.00 0.15 0.15 55 1008.3
20260505220056 11 287 6.4 12.9 0.00 0.15 0.15 55 1008.3
20260505214559 11 270 6.4 17.7 0.00 0.15 0.15 56 1008.2
20260505213113 12 266 1.6 11.3 0.00 0.15 0.15 60 1008.3
20260505211558 12 319 4.8 16.1 0.00 0.15 0.15 61 1008.2
20260505210103 12 279 8.0 19.3 0.00 0.15 0.15 63 1008.3
20260505204557 12 266 6.4 20.9 0.00 0.15 0.15 64 1008.3
20260505203057 12 250 1.6 14.5 0.00 0.15 0.15 65 1008.3
20260505201557 12 237 4.8 20.9 0.00 0.15 0.15 64 1008.2